Wind_Speed
27 26 26 25 24 24 23 23 23 23 23 22 22 21 20 20 19 19 19 19 19 20 20 20 20 19 19 19 18 18 18 18 18 17 17 17 17 18 18 18 18 18 18
28 28 28 27 26 26 25 25 25 25 24 23 23 23 23 22 21 21 21 21 21 21 21 21 21 21 21 21 21 20 20 20 20 19 19 19 19 19 19 19 20 20 20
30 29 29 28 28 28 28 28 28 27 26 25 25 25 25 24 24 23 23 23 22 22 23 23 22 22 22 22 22 22 21 21 21 21 20 20 20 20 20 20 20 21 20
31 31 31 30 30 30 30 30 29 29 29 28 28 27 26 26 26 25 25 24 24 24 24 24 23 23 23 23 23 23 23 22 22 22 22 22 22 22 22 22 22 22 21
33 33 33 32 32 32 32 32 32 31 31 30 30 29 28 27 27 27 27 27 26 26 26 26 25 25 25 25 25 25 25 24 24 24 24 24 24 24 24 23 23 23 23
35 34 34 34 34 34 34 34 34 33 33 32 31 31 30 29 29 29 28 29 29 28 28 28 27 27 27 27 27 27 27 26 26 26 26 26 25 25 25 25 25 25 25
36 36 36 35 35 36 35 35 35 35 34 34 33 33 33 32 32 32 31 30 30 30 30 30 30 29 29 30 30 29 29 29 29 28 28 28 28 27 28 27 27 27 27
38 38 37 37 37 37 37 36 36 36 35 35 35 35 35 35 35 34 34 33 32 32 32 31 32 32 31 32 32 31 32 32 31 31 31 31 30 29 29 28 29 29 29
40 39 38 38 38 37 37 37 37 37 37 37 37 37 36 36 36 36 36 36 35 34 34 34 34 34 34 34 34 34 34 33 33 33 33 33 32 31 31 31 31 31 31
41 40 39 39 39 39 39 38 38 39 39 39 39 39 38 38 38 38 37 37 37 36 36 35 35 36 36 36 36 36 35 35 35 35 34 34 34 34 33 33 33 34 34
42 42 41 40 40 40 40 39 39 39 40 39 39 39 39 39 38 39 38 38 38 38 38 38 37 36 37 37 37 38 37 37 36 36 35 35 35 35 35 36 36 36 35
42 42 41 41 41 41 41 41 41 41 40 40 41 41 41 40 39 39 39 39 39 39 39 39 39 38 38 37 37 38 38 38 38 37 37 37 37 37 37 36 37 37 37
42 42 42 42 42 42 42 42 42 42 42 42 42 41 41 41 41 40 40 40 40 40 39 39 39 39 39 38 39 38 38 38 39 39 39 39 39 39 38 38 39 39 39
43 43 43 43 43 43 43 43 42 43 43 43 42 43 43 42 42 42 41 41 40 41 41 40 40 40 41 40 40 40 39 39 40 40 40 40 40 39 39 39 39 40 40
44 44 44 44 43 43 43 43 43 43 43 43 43 43 43 43 43 43 42 42 41 41 40 41 41 42 42 41 41 41 41 42 42 41 41 41 41 41 41 41 41 42 42
45 44 44 44 43 43 43 43 44 43 44 44 44 44 44 44 44 44 44 43 43 43 43 43 43 43 42 42 42 43 42 42 43 43 43 43 42 43 44 43 43 43 44
45 45 44 44 44 44 43 43 43 44 44 44 44 44 45 45 45 45 45 44 44 44 44 43 44 43 43 43 43 43 43 43 43 44 45 45 44 44 45 45 44 45 46
47 46 46 46 45 44 44 44 44 44 45 45 45 45 45 46 46 45 45 44 44 44 44 44 43 43 44 44 44 44 43 44 44 45 45 46 46 46 46 45 46 47 47
47 47 47 47 46 46 45 45 45 45 45 45 45 45 46 47 46 46 46 45 45 45 45 46 45 45 45 45 45 45 45 44 44 45 45 46 46 46 46 47 47 48 49
47 48 48 47 47 47 46 45 45 45 45 45 45 45 46 47 47 47 47 47 47 46 46 46 45 46 47 47 47 46 46 45 45 45 46 46 46 47 48 49 50 51 52
48 48 48 48 48 47 47 47 46 46 45 45 45 45 45 46 46 46 47 47 47 47 47 48 47 48 47 47 47 48 48 46 46 46 46 47 48 49 51 52 53 54 54
49 48 48 49 49 49 49 48 48 47 47 46 46 46 46 46 46 46 46 47 48 49 49 49 48 49 48 48 48 49 50 49 48 48 48 49 51 52 53 54 54 53 54
50 49 49 49 49 50 49 49 49 48 48 47 47 47 47 47 47 47 47 47 48 48 49 50 50 50 50 50 50 50 50 49 49 50 50 51 52 52 53 53 53 53 54
50 50 49 49 49 49 49 49 50 50 49 48 47 47 47 47 47 47 47 48 48 48 48 50 51 51 51 50 50 51 51 51 52 52 52 52 52 52 52 52 53 53 54
49 49 48 48 48 48 49 50 50 50 50 49 48 48 47 47 47 47 47 47 47 48 48 49 49 50 50 50 50 51 51 52 52 52 52 52 52 52 51 52 53 54 55
48 47 47 47 47 46 47 48 48 48 48 48 48 48 49 49 48 48 48 47 47 48 48 49 49 49 48 48 49 50 50 51 51 52 51 52 52 53 52 52 53 54 55
Wind_Direction
240 240 241 242 244 246 247 247 247 249 250 251 252 253 253 253 253 254 256 258 261 264 267 269 270 272 274 276 277 280 282 283 283 284 286 289 291 293 294 295 296 297 299
242 242 242 243 245 247 248 249 249 251 252 253 254 254 255 256 257 256 258 260 262 265 268 270 271 271 272 273 275 278 280 280 281 283 284 287 290 292 293 293 293 293 294
243 243 243 244 246 247 248 249 251 252 253 254 256 257 257 257 259 260 261 262 263 266 268 269 270 270 271 272 274 276 278 280 282 283 283 285 289 291 291 291 293 293 292
244 244 244 246 248 248 249 250 251 252 253 254 255 257 257 258 259 260 261 263 264 265 267 268 269 270 270 271 273 274 277 279 280 282 283 284 285 287 288 288 289 291 292
246 246 247 248 249 250 250 251 251 252 253 254 254 256 257 257 259 261 262 263 264 265 265 267 268 269 270 271 271 273 276 278 279 280 282 284 285 285 286 286 287 287 288
247 248 248 249 250 250 251 251 252 252 253 253 254 254 256 258 260 261 263 263 264 265 265 266 267 269 270 271 271 273 275 277 278 279 280 284 284 284 285 285 285 285 286
247 248 249 251 251 251 251 252 252 253 253 253 254 255 256 257 259 261 262 264 265 265 266 267 266 268 269 270 271 272 274 276 277 278 279 281 283 282 283 284 284 284 285
247 248 249 251 252 252 252 253 253 253 252 253 254 256 256 258 259 261 263 264 266 266 267 268 268 267 268 270 270 271 273 274 275 277 279 280 281 281 281 282 283 284 285
249 248 250 252 252 252 253 254 255 254 253 254 255 256 257 257 259 261 263 265 266 267 268 268 268 268 268 269 270 271 273 274 275 276 277 279 279 280 281 282 282 282 284
249 249 251 252 252 253 254 254 255 255 255 255 256 257 258 258 259 261 263 265 266 267 268 270 270 270 270 271 271 272 273 275 275 276 277 278 278 279 281 281 282 283 284
250 251 252 253 253 254 254 254 255 255 256 256 257 257 258 259 260 261 262 264 266 266 267 268 270 271 272 272 272 273 272 273 274 276 277 278 279 280 280 281 282 283 283
250 251 252 253 254 255 255 256 256 257 257 257 258 257 258 259 260 262 263 264 266 267 267 268 268 269 271 271 274 274 273 272 272 274 276 278 279 280 280 282 283 282 282
249 251 252 253 254 255 256 257 257 257 257 258 258 258 258 259 260 262 263 265 266 267 267 267 266 268 269 271 274 274 274 274 273 274 276 277 279 279 280 280 281 282 282
249 250 252 253 254 255 256 257 257 257 258 258 257 257 257 258 259 260 262 265 267 267 266 265 266 268 269 271 273 274 274 274 274 275 275 276 277 278 279 280 281 282 283
249 251 252 253 254 254 255 256 256 257 258 258 258 257 257 257 258 260 262 265 267 268 267 265 265 267 268 270 273 275 274 274 274 275 275 276 277 278 279 280 280 282 284
249 250 251 252 254 255 255 256 257 258 258 258 259 258 258 258 258 259 262 265 267 268 268 266 266 268 269 271 273 273 274 274 273 274 275 276 276 278 279 279 280 282 283
250 250 251 253 254 255 256 256 258 258 258 259 258 258 258 259 259 259 261 265 266 267 267 267 267 268 270 271 273 274 274 274 275 275 276 276 276 277 280 280 280 282 283
250 251 252 253 254 255 255 256 257 258 258 258 258 258 259 259 261 262 262 265 266 266 266 267 268 269 270 271 274 275 276 275 275 275 276 277 279 278 280 281 281 281 283
250 251 252 253 254 254 255 256 257 258 258 258 258 258 259 259 260 262 263 265 265 266 267 267 269 269 270 271 274 275 276 276 275 276 276 278 278 278 280 281 281 282 283
250 251 252 253 254 254 254 255 256 257 257 257 258 259 259 260 261 262 263 264 265 266 266 268 268 269 270 272 274 274 275 275 276 276 277 278 279 280 281 281 282 282 283
250 251 252 252 253 254 255 255 256 257 257 258 259 260 261 261 261 262 264 264 265 266 266 267 268 269 270 272 274 274 274 274 275 276 276 277 279 280 281 282 282 283 283
250 251 251 252 253 254 255 256 256 257 258 259 260 261 261 261 263 264 265 265 266 266 266 267 268 270 271 273 274 275 273 273 275 275 276 277 279 280 282 282 282 283 283
249 250 252 253 254 255 255 256 257 258 259 260 260 261 261 262 264 265 266 266 267 267 268 268 269 270 272 273 274 273 273 274 275 276 277 278 279 281 282 282 283 283 284
249 250 252 254 254 255 256 256 257 259 259 259 260 260 261 262 263 264 266 267 267 268 268 269 270 272 272 274 274 275 275 275 276 277 278 279 280 281 283 283 284 284 285
249 250 251 253 254 255 255 256 258 258 259 259 259 260 261 262 263 264 266 266 266 267 268 269 270 272 273 273 275 276 277 277 277 277 279 281 281 282 283 284 284 285 286
249 250 251 252 253 255 255 256 256 257 258 259 260 260 261 263 263 264 266 266 266 268 268 270 271 273 274 275 275 276 276 277 278 279 280 281 282 282 282 283 284 285 285
Height
5831 5833 5836 5838 5840 5842 5844 5845 5847 5848 5850 5852 5853 5854 5856 5857 5858 5859 5860 5861 5861 5862 5862 5862 5862 5862 5862 5862 5862 5862 5862 5861 5861 5860 5860 5859 5859 5858 5858 5857 5856 5855 5854
5826 5828 5831 5833 5835 5837 5839 5841 5842 5844 5846 5847 5849 5850 5852 5853 5854 5855 5856 5857 5858 5858 5858 5858 5859 5858 5858 5858 5858 5858 5858 5857 5857 5857 5856 5856 5855 5855 5854 5853 5852 5852 5851
5820 5823 5825 5828 5830 5832 5834 5836 5837 5839 5841 5843 5844 5845 5847 5848 5849 5851 5852 5852 5853 5854 5854 5854 5854 5854 5854 5854 5854 5854 5853 5853 5853 5853 5852 5852 5851 5851 5850 5849 5848 5847 5847
5814 5817 5819 5822 5824 5826 5828 5830 5832 5834 5835 5837 5839 5840 5841 5843 5845 5846 5847 5848 5848 5849 5850 5850 5850 5850 5850 5850 5850 5849 5849 5849 5849 5848 5848 5847 5847 5846 5845 5844 5844 5843 5842
5807 5810 5813 5815 5818 5820 5822 5824 5826 5828 5830 5831 5833 5835 5836 5838 5839 5840 5842 5842 5843 5844 5844 5845 5845 5845 5845 5845 5845 5844 5844 5844 5844 5844 5843 5842 5842 5841 5840 5839 5838 5838 5837
5800 5803 5806 5808 5811 5813 5815 5817 5819 5821 5823 5825 5827 5829 5830 5832 5833 5835 5836 5836 5837 5838 5839 5839 5840 5840 5840 5840 5840 5839 5839 5839 5839 5838 5838 5837 5836 5835 5834 5833 5833 5832 5832
5792 5795 5798 5801 5803 5806 5808 5810 5812 5814 5816 5818 5820 5822 5824 5825 5827 5828 5829 5830 5831 5832 5833 5833 5833 5834 5834 5834 5834 5834 5833 5833 5833 5832 5832 5831 5830 5829 5828 5828 5827 5826 5826
5784 5787 5790 5793 5795 5798 5800 5802 5804 5806 5809 5811 5813 5815 5817 5819 5820 5821 5822 5823 5824 5825 5826 5826 5827 5827 5827 5827 5827 5827 5827 5827 5826 5826 5825 5825 5824 5823 5822 5821 5821 5820 5820
5776 5779 5782 5784 5787 5790 5792 5794 5797 5799 5801 5803 5805 5807 5809 5811 5812 5814 5815 5816 5817 5818 5818 5819 5819 5820 5820 5820 5820 5820 5820 5820 5819 5819 5818 5818 5817 5816 5815 5815 5814 5814 5813
5768 5770 5773 5776 5779 5781 5784 5786 5788 5790 5792 5795 5797 5799 5801 5803 5805 5806 5807 5808 5809 5810 5811 5811 5812 5812 5812 5812 5812 5812 5812 5812 5812 5812 5811 5810 5810 5809 5808 5808 5807 5806 5806
5759 5762 5764 5767 5770 5772 5775 5777 5779 5781 5784 5786 5788 5790 5792 5794 5796 5797 5799 5800 5801 5802 5802 5803 5803 5803 5804 5804 5804 5804 5804 5804 5804 5804 5803 5803 5802 5802 5801 5800 5800 5799 5798
5749 5752 5755 5758 5760 5763 5765 5768 5770 5772 5774 5777 5779 5781 5783 5785 5787 5788 5790 5791 5792 5793 5793 5794 5794 5795 5795 5795 5795 5795 5795 5795 5795 5795 5795 5795 5794 5794 5793 5792 5791 5790 5789
5740 5743 5746 5748 5751 5753 5756 5758 5760 5762 5765 5767 5769 5771 5773 5775 5777 5779 5780 5781 5782 5783 5784 5784 5785 5786 5786 5786 5786 5786 5786 5786 5786 5786 5786 5786 5786 5785 5784 5783 5783 5782 5780
5730 5733 5736 5738 5741 5743 5745 5748 5750 5752 5754 5757 5758 5761 5763 5765 5767 5769 5770 5772 5773 5774 5774 5775 5776 5777 5777 5777 5777 5777 5776 5777 5777 5777 5777 5777 5776 5776 5775 5774 5773 5772 5771
5720 5723 5726 5728 5731 5733 5735 5738 5740 5742 5744 5746 5748 5750 5752 5755 5757 5759 5761 5762 5763 5764 5765 5766 5767 5767 5767 5767 5767 5767 5767 5767 5768 5768 5767 5767 5766 5766 5765 5765 5764 5763 5761
5709 5712 5715 5718 5721 5723 5725 5727 5729 5731 5733 5736 5738 5740 5742 5744 5746 5749 5750 5751 5753 5754 5755 5756 5757 5757 5757 5758 5758 5757 5757 5757 5757 5757 5757 5756 5756 5756 5755 5754 5753 5752 5751
5698 5702 5705 5708 5710 5713 5715 5717 5719 5721 5723 5725 5727 5729 5731 5734 5736 5738 5740 5741 5742 5743 5744 5745 5746 5747 5747 5747 5747 5747 5747 5747 5747 5746 5746 5746 5745 5745 5744 5743 5742 5741 5740
5687 5691 5694 5697 5700 5702 5704 5707 5709 5710 5713 5715 5716 5718 5720 5723 5725 5727 5729 5731 5731 5732 5733 5734 5735 5736 5737 5737 5736 5736 5736 5736 5736 5735 5735 5735 5734 5734 5733 5732 5730 5729 5728
5676 5679 5682 5686 5688 5691 5693 5696 5698 5700 5702 5704 5705 5707 5709 5712 5714 5716 5718 5719 5720 5721 5722 5723 5724 5725 5726 5725 5726 5726 5725 5725 5725 5724 5724 5723 5723 5722 5721 5719 5718 5717 5715
5664 5667 5671 5674 5677 5679 5682 5684 5686 5688 5690 5692 5694 5696 5698 5700 5702 5704 5706 5707 5708 5709 5711 5712 5713 5714 5714 5714 5714 5715 5714 5714 5713 5713 5713 5712 5711 5710 5709 5707 5705 5704 5702
5652 5655 5658 5662 5665 5668 5670 5673 5675 5677 5679 5681 5683 5685 5687 5689 5690 5692 5694 5696 5697 5698 5699 5700 5701 5702 5702 5702 5703 5703 5703 5702 5702 5701 5701 5700 5699 5698 5696 5694 5692 5690 5688
5639 5643 5646 5649 5652 5655 5658 5660 5662 5665 5667 5669 5671 5673 5675 5677 5679 5680 5682 5683 5684 5685 5686 5687 5688 5689 5690 5690 5690 5690 5690 5690 5690 5690 5689 5688 5687 5685 5683 5681 5678 5676 5673
5627 5630 5634 5637 5640 5643 5645 5648 5650 5652 5655 5657 5659 5661 5663 5665 5666 5667 5669 5670 5671 5672 5673 5674 5675 5676 5677 5677 5677 5677 5677 5677 5678 5677 5676 5676 5674 5672 5669 5667 5664 5661 5659
5614 5618 5621 5624 5627 5630 5632 5635 5637 5639 5642 5644 5647 5649 5651 5652 5654 5655 5656 5657 5658 5659 5660 5661 5662 5663 5663 5663 5664 5664 5664 5664 5664 5663 5662 5662 5660 5658 5656 5652 5649 5647 5644
5602 5605 5608 5611 5614 5617 5620 5622 5624 5627 5629 5631 5634 5636 5638 5639 5641 5642 5643 5645 5646 5647 5647 5647 5648 5649 5649 5650 5650 5650 5650 5649 5650 5649 5647 5647 5646 5644 5643 5639 5635 5632 5629
5589 5593 5596 5599 5602 5605 5607 5609 5611 5614 5617 5619 5621 5623 5625 5627 5628 5629 5630 5632 5633 5634 5634 5634 5635 5636 5636 5636 5636 5635 5635 5635 5635 5635 5633 5632 5630 5628 5629 5626 5622 5618 5614